[[[{"header":{"parameterUnit":"kt","parameterCategory":2,"dx":1,"dy":1,"la1":30.253999710083008,"la2":30.299108505249023,"lo1":-89.0895004272461,"lo2":-89.04439544677734,"nx":28,"ny":28,"refTime":"2022-10-24T21:00:00:Z","depth":0,"parameterNumber":1,"parameterNumberName":"U-component_of_WINDS"},"data":[9.3472,9.3688,9.371,9.3969,9.4032,9.4214,9.4286,9.4382,9.4465,9.4686,9.4818,9.4864,9.4957,9.5122,9.5268,9.5286,9.5348,9.5409,9.542,9.5121,9.5081,9.5044,9.4993,9.5421,9.5422,9.5728,9.5731,9.5733,9.3257,9.3322,9.3463,9.3616,9.3739,9.3693,9.3811,9.3918,9.4082,9.4185,9.4314,9.4512,9.4671,9.4744,9.4902,9.5008,9.4997,9.5049,9.5044,9.506,9.474,9.4687,9.5056,9.5056,9.5056,9.5056,9.5056,9.5056,9.2872,9.3,9.3104,9.3258,9.334,9.3443,9.357,9.3621,9.3761,9.3925,9.3924,9.4111,9.4219,9.4419,9.4492,9.464,9.4586,9.4652,9.4669,9.4686,9.4703,9.4266,9.4668,9.4667,9.4666,9.4665,9.4664,0,9.2597,9.2607,9.2742,9.2886,9.2999,9.3113,9.322,9.3299,9.3326,9.3441,9.361,9.3711,9.3912,9.4076,9.4227,9.429,9.4257,9.4254,9.43,9.4306,9.4292,9.4306,9.3788,9.4243,9.4239,9.4237,9.4235,9.4233,9.2214,9.2359,9.2476,9.2569,9.2632,9.2782,9.2876,9.2887,9.2987,9.3123,9.3237,9.3398,9.3529,9.3797,9.3857,9.4008,9.3994,9.4166,9.4017,9.4016,9.4003,9.3995,9.4012,9.4196,9.4201,9.4205,9.4208,0,9.1997,9.2029,9.226,9.2361,9.2391,9.2543,9.2631,9.276,9.2794,9.2977,9.302,9.3076,9.3242,9.3274,9.3469,9.3482,9.3742,9.3722,9.3706,9.3705,9.3865,9.3851,9.4372,9.4442,9.3995,9.3999,9.4002,0,9.1684,9.1874,9.191,9.2042,9.2254,9.2259,9.247,9.252,9.2609,9.2753,9.2716,9.2853,9.287,9.3013,9.303,9.3247,9.3283,9.3306,9.331,9.3312,9.331,9.3368,9.3349,9.3305,9.3302,9.33,9.3298,0,9.1344,9.1583,9.1797,9.1857,9.1982,9.2084,9.2141,9.224,9.2332,9.2456,9.2516,9.2661,9.2741,9.2855,9.2876,9.2774,9.3141,9.3005,9.3165,9.3165,9.3246,9.3242,9.3692,9.3294,9.3293,9.3292,9.3292,0,9.1096,9.1218,9.1521,9.1626,9.1688,9.1829,9.197,9.2097,9.2204,9.2223,9.2321,9.23,9.2488,9.2352,9.2613,9.2475,9.2557,9.2595,9.2607,9.2628,9.2476,9.273,9.3153,9.32,9.2646,9.2641,9.2636,0,9.0701,9.1014,9.1019,9.1307,9.1456,9.1404,9.1561,9.1655,9.1693,9.1827,9.1869,9.2021,9.1925,9.1978,9.2102,9.2153,9.2333,9.2129,9.233,9.2337,9.2306,9.2694,9.2751,9.3056,9.2567,9.2575,9.258,0,9.0398,9.0544,9.0595,9.0664,9.0786,9.0909,9.1088,9.1238,9.1327,9.1435,9.1589,9.1801,9.1739,9.1824,9.1822,9.195,9.2212,9.1866,9.1869,9.1931,9.2533,9.2587,9.2638,9.2183,9.2191,9.2198,9.2525,0,9.0025,9.0183,9.0319,9.0468,9.0566,9.0746,9.0774,9.0875,9.0862,9.0896,9.1119,9.1203,9.1357,9.142,9.1408,9.169,9.1649,9.1579,9.1451,9.1703,9.1813,9.1857,9.1286,9.1282,9.1279,9.1277,0,0,8.9641,8.9867,8.9863,9.0035,9.0118,9.0059,9.025,9.0325,9.0477,9.0537,9.0464,9.0777,9.0847,9.1117,9.1197,9.1258,9.1313,9.1222,9.1582,9.1616,9.1647,9.1763,9.1809,9.1271,9.127,9.1269,9.1268,0,8.951,8.9577,8.9763,8.9839,8.9952,8.9977,9.0022,9.0123,9.0153,9.0369,9.032,9.0457,9.0703,9.0787,9.0861,9.119,9.1146,9.1234,9.1403,9.155,9.1588,9.1621,9.1743,9.1786,9.1261,9.1261,9.1261,0,8.9219,8.9292,8.9383,8.9564,8.9637,8.979,8.9661,8.9826,8.994,8.9868,9.0083,9.0133,9.0245,9.0493,9.0605,9.0543,9.0993,9.0854,9.0874,9.0888,9.1032,9.1077,9.1118,9.0584,9.0582,9.0579,0,0,8.9103,8.9247,8.9327,8.9538,8.9587,8.9627,8.9709,8.9703,8.9802,8.9842,8.9905,9.0005,9.0149,9.0244,9.038,9.0647,9.0673,9.0769,9.0801,9.0827,9.0855,9.1006,9.1051,9.057,9.057,9.057,0,0,8.9047,8.9147,8.9115,8.9362,8.9457,8.9551,8.9681,8.9644,8.9768,8.975,8.975,8.9776,9.0008,9.0058,8.993,9.0335,9.0207,9.0238,9.0293,9.0334,9.0366,9.035,8.9811,0,0,0,0,0,8.8926,8.9134,8.9104,8.9149,8.9378,8.9568,8.9597,8.96,8.951,8.9613,8.966,8.9605,8.999,8.9877,8.9923,9.0066,9.045,9.0471,9.0491,9.0626,9.0668,9.0704,0,0,0,0,0,0,8.8943,8.8998,8.9098,8.92,8.9252,8.956,8.9408,8.9415,8.9499,8.9485,8.9598,8.9609,8.9616,8.9853,8.9895,9.0031,8.9796,9.0458,9.0476,9.0492,9.0641,9.0675,9.0705,0,0,0,0,0,8.8957,8.9001,8.9367,8.9197,8.9242,8.9296,8.94,8.9404,8.947,8.9541,8.955,8.9464,8.962,8.9655,8.9878,9.0012,8.9768,8.9783,9.047,9.0484,9.0497,9.0657,0,0,0,0,0,0,8.8968,8.9008,8.9376,8.939,8.9117,8.9279,8.9304,8.9396,8.952,8.9531,8.9406,8.9394,8.9625,8.9651,8.9679,9.0005,8.9744,8.976,8.977,9.0481,9.0492,9.0502,0,0,0,0,0,0,8.8984,8.902,8.9383,8.9282,8.9284,8.9263,8.9286,8.9474,8.9523,8.9378,8.9372,8.94,8.9584,8.965,8.9671,8.9966,8.9726,8.9741,8.9752,8.9758,9.049,9.0499,0,0,0,0,0,0,8.8999,8.903,8.9278,8.928,8.9281,8.9437,8.943,8.9665,8.9433,8.9374,8.9413,8.9403,8.9585,8.9606,8.9666,8.9952,8.9962,8.9727,8.9737,8.9744,8.9749,0,0,0,0,0,0,0,8.9012,8.8803,8.9293,8.9279,8.9279,8.9518,8.9522,8.9525,8.9431,8.9423,8.9415,8.9407,8.964,8.9656,8.9673,8.9941,0,0,8.9725,8.9733,0,0,0,0,0,0,0,0,8.8791,8.88,8.9294,8.9297,8.93,8.9518,8.9522,8.9525,8.943,8.9423,8.9417,8.941,8.9644,8.9658,8.9671,0,0,0,0,0,0,0,0,0,0,0,0,0,0,0,8.9294,8.9297,0,8.9519,8.9521,8.9524,8.9429,8.9423,8.9418,8.9413,8.9648,8.9659,8.967,0,0,0,0,0,0,0,0,0,0,0,0,0,0,0,0,0,0,0,0,0,0,0,0,0,0,0,0,0,0,0,0,0,0,0,0,0,0,0,0,0,0,0,0,0,0,0,0,0,0,0,0,0,0,0,0,0,0,0,0,0,0,0,0,0,0,0,0,0]}],[{"header":{"parameterUnit":"kt","parameterCategory":2,"dx":1,"dy":1,"la1":30.253999710083008,"la2":30.299108505249023,"lo1":-89.0895004272461,"lo2":-89.04439544677734,"nx":28,"ny":28,"refTime":"2022-10-24T21:00:00:Z","depth":0,"parameterNumber":2,"parameterNumberName":"V-component_of_WINDS"},"data":[-5.4591,-5.4597,-5.4583,-5.4583,-5.457,-5.4568,-5.4562,-5.4553,-5.4542,-5.4537,-5.4532,-5.4517,-5.4499,-5.4488,-5.448,-5.4474,-5.4471,-5.4485,-5.4475,-5.4428,-5.442,-5.4413,-5.4411,-5.4485,-5.4485,-5.4525,-5.4526,-5.4526,-5.4561,-5.4549,-5.4545,-5.4531,-5.4527,-5.4506,-5.4493,-5.4491,-5.4488,-5.4475,-5.4468,-5.4461,-5.4454,-5.443,-5.442,-5.4422,-5.441,-5.442,-5.4419,-5.4417,-5.4366,-5.4364,-5.443,-5.443,-5.443,-5.443,-5.443,-5.443,-5.4504,-5.4508,-5.4491,-5.4485,-5.4474,-5.4465,-5.4465,-5.4447,-5.4442,-5.443,-5.4412,-5.4408,-5.4391,-5.4369,-5.4358,-5.4354,-5.434,-5.4345,-5.4347,-5.4348,-5.4353,-5.4299,-5.4352,-5.4351,-5.4351,-5.4351,-5.4351,0,-5.4457,-5.4445,-5.4439,-5.4429,-5.4424,-5.4414,-5.4403,-5.4403,-5.4369,-5.4366,-5.4359,-5.4353,-5.434,-5.4331,-5.4317,-5.4303,-5.4278,-5.4274,-5.4277,-5.4286,-5.4297,-5.4292,-5.4211,-5.4272,-5.4271,-5.4271,-5.427,-5.427,-5.4398,-5.4404,-5.4378,-5.4376,-5.4365,-5.4362,-5.4356,-5.4326,-5.4321,-5.4301,-5.4306,-5.4297,-5.4288,-5.4279,-5.4254,-5.4243,-5.4231,-5.4256,-5.4229,-5.4238,-5.4231,-5.4231,-5.4232,-5.4262,-5.4263,-5.4264,-5.4264,0,-5.4367,-5.4341,-5.4345,-5.4317,-5.431,-5.4317,-5.4293,-5.4295,-5.4276,-5.4275,-5.4273,-5.4242,-5.4235,-5.4206,-5.4191,-5.4176,-5.4188,-5.4176,-5.4195,-5.4191,-5.4211,-5.4209,-5.4279,-5.4287,-5.421,-5.4211,-5.4211,0,-5.4306,-5.4314,-5.4276,-5.4279,-5.4287,-5.4255,-5.4264,-5.4247,-5.423,-5.4229,-5.4197,-5.4196,-5.4159,-5.4154,-5.4131,-5.4135,-5.4132,-5.4121,-5.4114,-5.4123,-5.4125,-5.4119,-5.4115,-5.41,-5.4099,-5.4099,-5.4099,0,-5.4259,-5.4247,-5.4252,-5.4244,-5.4214,-5.4217,-5.4205,-5.4184,-5.4179,-5.4166,-5.4162,-5.4149,-5.4142,-5.4133,-5.4104,-5.4086,-5.4107,-5.4077,-5.4096,-5.4096,-5.41,-5.41,-5.4171,-5.4098,-5.4098,-5.4098,-5.4098,0,-5.4205,-5.4195,-5.4205,-5.4179,-5.4177,-5.4179,-5.4165,-5.4161,-5.4141,-5.4128,-5.4117,-5.4091,-5.4091,-5.4064,-5.4063,-5.4049,-5.4044,-5.4033,-5.4033,-5.403,-5.4,-5.4044,-5.4115,-5.4121,-5.403,-5.403,-5.4029,0,-5.4159,-5.4162,-5.4135,-5.4145,-5.4142,-5.4106,-5.4108,-5.4091,-5.4073,-5.4067,-5.4045,-5.4038,-5.4011,-5.4005,-5.4009,-5.3986,-5.4005,-5.3982,-5.3973,-5.3973,-5.398,-5.4045,-5.4063,-5.4103,-5.4021,-5.4022,-5.4023,0,-5.412,-5.4082,-5.4086,-5.4076,-5.4049,-5.4045,-5.4048,-5.4034,-5.4032,-5.4016,-5.4016,-5.4005,-5.3984,-5.3973,-5.3949,-5.3955,-5.3991,-5.3931,-5.393,-5.3943,-5.4014,-5.4032,-5.4039,-5.3974,-5.3975,-5.3975,-5.4017,0,-5.4046,-5.4043,-5.4051,-5.4029,-5.4022,-5.4026,-5.3994,-5.399,-5.3969,-5.3948,-5.3948,-5.3924,-5.3908,-5.3907,-5.3884,-5.3906,-5.3898,-5.3875,-5.3844,-5.3887,-5.39,-5.3905,-5.3828,-5.3827,-5.3826,-5.3826,0,0,-5.4008,-5.4002,-5.397,-5.3971,-5.3963,-5.3923,-5.393,-5.3917,-5.3891,-5.3886,-5.3869,-5.3849,-5.3829,-5.3831,-5.3842,-5.3835,-5.3836,-5.3821,-5.3867,-5.3872,-5.3876,-5.389,-5.3896,-5.3824,-5.3824,-5.3823,-5.3823,0,-5.3974,-5.3957,-5.3964,-5.395,-5.3926,-5.3904,-5.3906,-5.3875,-5.3862,-5.386,-5.3826,-5.3821,-5.3804,-5.3789,-5.3779,-5.3821,-5.3794,-5.3818,-5.3853,-5.3859,-5.3865,-5.387,-5.3886,-5.3892,-5.3821,-5.3821,-5.3821,0,-5.3929,-5.3907,-5.3907,-5.3885,-5.3869,-5.3866,-5.3828,-5.3825,-5.3822,-5.3775,-5.3774,-5.3756,-5.3731,-5.3737,-5.3739,-5.3723,-5.3758,-5.374,-5.3745,-5.3744,-5.3748,-5.3755,-5.3762,-5.3677,-5.3676,-5.3676,0,0,-5.3904,-5.39,-5.3865,-5.3875,-5.3868,-5.3834,-5.3828,-5.3805,-5.3785,-5.3777,-5.3752,-5.3732,-5.3722,-5.3716,-5.3704,-5.3715,-5.3707,-5.3724,-5.3731,-5.3736,-5.3738,-5.3744,-5.3751,-5.3675,-5.3675,-5.3674,0,0,-5.3891,-5.3852,-5.3833,-5.3841,-5.3824,-5.3788,-5.3795,-5.3772,-5.3758,-5.3754,-5.3713,-5.3706,-5.3711,-5.3693,-5.3679,-5.3693,-5.3663,-5.3666,-5.3704,-5.3712,-5.3718,-5.3722,-5.3634,0,0,0,0,0,-5.3839,-5.3857,-5.3841,-5.3837,-5.3808,-5.3798,-5.3794,-5.3762,-5.3743,-5.3749,-5.3725,-5.3696,-5.3678,-5.3665,-5.3661,-5.3676,-5.3657,-5.366,-5.3663,-5.3714,-5.3723,-5.3731,0,0,0,0,0,0,-5.3837,-5.3833,-5.384,-5.3807,-5.38,-5.3797,-5.3757,-5.3749,-5.3741,-5.3736,-5.3702,-5.3695,-5.3666,-5.3664,-5.3661,-5.3676,-5.3635,-5.3658,-5.3661,-5.3663,-5.3717,-5.3725,-5.3731,0,0,0,0,0,-5.3836,-5.3832,-5.3794,-5.3806,-5.38,-5.3762,-5.3757,-5.3749,-5.3742,-5.3704,-5.3696,-5.3719,-5.3668,-5.3663,-5.3662,-5.3678,-5.3637,-5.3636,-5.366,-5.3662,-5.3664,-5.3721,0,0,0,0,0,0,-5.3835,-5.3825,-5.3792,-5.3789,-5.3797,-5.3761,-5.3755,-5.375,-5.371,-5.3702,-5.3718,-5.3715,-5.3669,-5.3665,-5.3661,-5.3681,-5.3638,-5.3637,-5.3636,-5.3662,-5.3663,-5.3665,0,0,0,0,0,0,-5.3827,-5.3823,-5.379,-5.378,-5.3776,-5.3761,-5.3755,-5.3749,-5.371,-5.3726,-5.3722,-5.3717,-5.3673,-5.3666,-5.3663,-5.3655,-5.3639,-5.3638,-5.3638,-5.3637,-5.3663,-5.3664,0,0,0,0,0,0,-5.3825,-5.3821,-5.3781,-5.3778,-5.3773,-5.3737,-5.3755,-5.3726,-5.3703,-5.3729,-5.37,-5.3698,-5.3676,-5.3672,-5.3665,-5.3658,-5.3656,-5.3639,-5.3639,-5.3638,-5.3638,0,0,0,0,0,0,0,-5.3823,-5.3853,-5.3811,-5.3775,-5.3772,-5.3761,-5.376,-5.3759,-5.3703,-5.3701,-5.37,-5.3699,-5.3645,-5.3644,-5.3642,-5.3661,0,0,-5.3639,-5.3639,0,0,0,0,0,0,0,0,-5.3854,-5.3854,-5.381,-5.381,-5.3809,-5.3761,-5.376,-5.3759,-5.3703,-5.3702,-5.3701,-5.37,-5.3644,-5.3643,-5.3643,0,0,0,0,0,0,0,0,0,0,0,0,0,0,0,-5.381,-5.381,0,-5.376,-5.376,-5.3759,-5.3702,-5.3702,-5.3701,-5.37,-5.3644,-5.3643,-5.3643,0,0,0,0,0,0,0,0,0,0,0,0,0,0,0,0,0,0,0,0,0,0,0,0,0,0,0,0,0,0,0,0,0,0,0,0,0,0,0,0,0,0,0,0,0,0,0,0,0,0,0,0,0,0,0,0,0,0,0,0,0,0,0,0,0,0,0,0,0]}]]]